This demonstration page uses our WeatherBlox Daily Observations layout. Learn more.

Left ArrowRight Arrow

39.01783, -85.05884

Hourly Observations for October 3, 2016

Temp ( °F °C ) Dew Point ( °F °C ) Humidity (%) Winds ( mph kmh ) Pressure ( in mb ) Visibility ( mi km ) Precip ( " mm )
12:52 am 00:52 Clear with Patchy Fog 56 13.3 55 12.8 97 97 Calm 30.07 1018 8 13 0.00 0.00
1:45 am 01:45 Clear with Patchy Fog 54 12 54 12 100 100 Calm 30.09 1019 5 8 0.00 0.00
1:52 am 01:52 Clear with Patchy Fog 54 12.2 54 12.2 100 100 Calm 30.06 1018 5 8 0.00 0.00
2:52 am 02:52 Clear with Patchy Fog 52 11.1 52 11.1 100 100 S 3 6 30.07 1018 4 6 0.00 0.00
3:52 am 03:52 Clear with Patchy Fog 54 12.2 53 11.7 97 97 Calm 30.06 1018 10 16 0.00 0.00
4:47 am 04:47 Mostly Clear with Patchy Fog 55 13 55 13 100 100 N 3 6 30.06 1018 1 2 0.00 0.00
4:49 am 04:49 Clear with Patchy Fog 55 13 55 13 100 100 N 3 6 30.06 1018 3 5 0.00 0.00
4:52 am 04:52 Partly Cloudy with Patchy Fog 55 12.8 55 12.8 100 100 Calm 30.06 1018 4 6 0.00 0.00
5:39 am 05:39 Partly Cloudy with Patchy Fog 54 12 54 12 100 100 Calm 30.09 1019 4 6 0.00 0.00
5:52 am 05:52 Partly Cloudy with Patchy Fog 53 11.7 53 11.7 100 100 Calm 30.06 1018 5 8 0.00 0.00
6:52 am 06:52 Partly Cloudy with Patchy Fog 54 12.2 54 12.2 100 100 Calm 30.07 1018 7 11 0.00 0.00
7:52 am 07:52 Sunny with Patchy Fog 52 11.1 52 11.1 100 100 NW 3 6 30.09 1019 10 16 0.00 0.00
8:14 am 08:14 Sunny with Mist and Fog 50 10 50 10 100 100 Calm 30.12 1020 3 4 0.00 0.00
8:52 am 08:52 Sunny with Patchy Fog 57 13.9 55 12.8 93 93 N 3 6 30.09 1019 8 13 0.00 0.00
9:52 am 09:52 Sunny 62 16.7 57 13.9 84 84 NNE 3 6 30.09 1019 7 11 0.00 0.00
10:52 am 10:52 Sunny 65 18.3 57 13.9 76 76 E 3 6 30.10 1019 9 14 0.00 0.00
12:52 pm 12:52 Mostly Cloudy 69 20.6 55 12.8 61 61 Calm 30.09 1019 10 16 0.00 0.00
1:52 pm 13:52 Partly Cloudy 72 22.2 54 12.2 53 53 NE 5 7 30.07 1018 10 16 0.00 0.00
2:52 pm 14:52 Partly Cloudy 74 23.3 55 12.8 52 52 Calm 30.05 1018 10 16 0.00 0.00
3:52 pm 15:52 Partly Cloudy 72 22.2 54 12.2 53 53 ESE 6 9 30.04 1017 10 16 0.00 0.00
4:52 pm 16:52 Partly Cloudy 72 22.2 53 11.7 52 52 Calm 30.03 1017 10 16 0.00 0.00
5:52 pm 17:52 Partly Cloudy 74 23.3 54 12.2 50 50 Calm 30.03 1017 10 16 0.00 0.00
6:52 pm 18:52 Partly Cloudy 70 21.1 55 12.8 59 59 N 6 9 30.03 1017 10 16 0.00 0.00
7:52 pm 19:52 Mostly Clear 66 18.9 54 12.2 65 65 N 5 7 30.04 1017 10 16 0.00 0.00
8:52 pm 20:52 Clear 65 18.3 55 12.8 70 70 Calm 30.05 1018 10 16 0.00 0.00
9:52 pm 21:52 Clear 63 17.2 55 12.8 76 76 Calm 30.06 1018 10 16 0.00 0.00
10:52 pm 22:52 Clear 61 16.1 55 12.8 81 81 Calm 30.06 1018 10 16 0.00 0.00
11:52 pm 23:52 Clear 62 16.7 55 12.8 78 78 E 3 6 30.06 1018 10 16 0.00 0.00

Powered by AerisWeather